Home > Weather > Wermelskirchen > Past weeks

Flag for Germany Weather for the Past 2 Weeks in Wermelskirchen, North Rhine-Westphalia, Germany

Now
43 °F

Light rain. Partly cloudy.


Feels Like: 40 °F
Forecast: 39 / 53 °F
Wind: 5 mph from North

Location: Koeln / Bonn

Current Time: Apr 30, 2016 at 4:12:17 AM

Latest Report: Apr 30, 2016 at 3:20 AM


Visibility: N/A

Pressure: 29.98 "Hg

Humidity: 93%

Dew Point: 41 °F

Location of WermelskirchenLocation

Historic Weather in Wermelskirchen — Graph

°F

Wermelskirchen Temperature Yesterday

Maximum temperature yesterday: 59 °F (at 4:20 PM)
Minimum temperature yesterday: 36 °F (at 5:20 AM)
Average temperature yesterday: 47 °F

High & Low Weather Summary for the Past Weeks

 TemperatureHumidityPressure
High70 °F (Apr 21, 3:50 PM)100% (Apr 15, 3:50 AM)30.45 "Hg (Apr 15, 3:50 AM)
Low30 °F (Apr 18, 5:50 AM)23% (Apr 21, 4:50 PM)29.53 "Hg (Apr 16, 3:50 AM)
Average47 °F68%29.94 "Hg
* Reported Apr 15 2:20 AM — Apr 30 2:50 AM, Wermelskirchen, Weather by CustomWeather, © 2016

Note: Actual official high and low records may vary slightly from our data, if they occured in-between our weather recording intervals... More about our weather records

Advertising

Wermelskirchen Weather History for the Previous 24 Hours

Scroll right to see more
 ConditionsComfort  
Time TempWeatherWind HumidityBarometerVisibility
2:50 AM
Sat, Apr 30
45 °FPartly cloudy.2 mph87%30.01 "HgN/A
1:50 AM45 °FPassing clouds.5 mph81%29.98 "HgN/A
1:20 AM45 °FPassing clouds.6 mph81%30.01 "HgN/A
12:50 AM45 °FPassing clouds.3 mph87%30.01 "HgN/A
12:20 AM45 °FPassing clouds.2 mph87%30.01 "HgN/A
11:50 PM
Fri, Apr 29
45 °FPartly cloudy.6 mph87%30.01 "HgN/A
11:20 PM45 °FPartly cloudy.2 mph87%30.01 "HgN/A
10:20 PM45 °FPassing clouds.3 mph87%30.01 "HgN/A
9:50 PM46 °FPassing clouds.2 mph82%30.01 "HgN/A
9:20 PM46 °FPartly sunny.1 mph82%30.01 "HgN/A
8:50 PM46 °FPartly sunny.5 mph82%30.01 "HgN/A
8:20 PM46 °FPartly sunny.8 mph82%30.01 "HgN/A
7:50 PM48 °FPartly sunny.9 mph76%29.98 "HgN/A
7:20 PM52 °FPartly sunny.17 mph58%29.98 "HgN/A
6:50 PM54 °FBroken clouds.14 mph44%29.98 "HgN/A
6:20 PM55 °FBroken clouds.17 mph44%29.95 "HgN/A
5:50 PM55 °FBroken clouds.18 mph44%29.95 "HgN/A
5:20 PM55 °FBroken clouds.18 mph41%29.95 "HgN/A
4:50 PM57 °FBroken clouds.18 mph41%29.95 "HgN/A
4:20 PM59 °FPartly sunny.20 mph39%29.95 "HgN/A
3:50 PM55 °FBroken clouds.16 mph44%29.98 "HgN/A
3:20 PM55 °FPartly sunny.17 mph44%29.98 "HgN/A
2:50 PM55 °FPartly sunny.20 mph44%29.98 "HgN/A
2:20 PM55 °FBroken clouds.18 mph44%29.95 "HgN/A
1:50 PM55 °FPartly sunny.20 mph47%29.95 "HgN/A
1:20 PM55 °FBroken clouds.21 mph44%29.98 "HgN/A
12:50 PM54 °FBroken clouds.16 mph47%29.98 "HgN/A
12:20 PM54 °FBroken clouds.17 mph47%29.98 "HgN/A
11:50 AM52 °FBroken clouds.20 mph50%29.98 "HgN/A
11:20 AM54 °FScattered clouds.20 mph47%29.98 "HgN/A
10:50 AM52 °FScattered clouds.15 mph54%29.98 "HgN/A
10:20 AM50 °FScattered clouds.15 mph54%29.98 "HgN/A
9:50 AM50 °FScattered clouds.15 mph54%29.98 "HgN/A
9:20 AM48 °FSunny.15 mph58%29.98 "Hg10 mi
8:50 AM46 °FSunny.13 mph66%29.98 "Hg10 mi
8:20 AM43 °FSunny.12 mph76%29.98 "Hg10 mi
7:50 AM41 °FSunny.12 mph81%29.98 "Hg10 mi
7:20 AM39 °FSunny.10 mph81%29.98 "Hg10 mi
6:50 AM37 °FClear.10 mph81%29.98 "Hg10 mi
6:20 AM36 °FClear.10 mph87%29.95 "Hg10 mi
5:50 AM37 °FClear.10 mph81%29.95 "Hg10 mi
5:20 AM36 °FClear.10 mph87%29.98 "Hg10 mi
4:20 AM37 °FClear.9 mph81%29.98 "Hg10 mi
Weather by CustomWeather, © 2016

See weather overviewHow to use our weather pages